Simultaneous Nadir Overpasses (SNOs) Predictions

Prediction of SNOs between GOES-17 and METOP-C Satellite Orbit:

Table of predicted SNOs for the next 14.0 days since TLE Epoch: 12/9/2022
Index Date Time (GOES-17) GOES-17 Lat,Lon METOP-C Lat,Lon Distance(km) Time Diff (sec)
1 12/10/2022 06:28:03 -0.00,-137.32 0.55,-134.82 284.18 80
2 12/11/2022 18:46:57 0.02,-137.32 0.45,-139.39 235.24 80
3 12/12/2022 18:28:57 0.03,-137.32 -0.64,-134.39 333.64 80
4 12/14/2022 06:47:56 -0.03,-137.30 -0.39,-138.98 191.39 80
5 12/15/2022 06:24:37 -0.04,-137.29 0.71,-133.98 377.05 80
6 12/16/2022 18:43:29 0.04,-137.29 0.34,-138.54 143.40 80
7 12/17/2022 18:25:30 0.04,-137.28 -0.77,-133.54 424.79 80
8 12/19/2022 06:44:30 -0.04,-137.25 -0.21,-138.14 101.46 80
9 12/20/2022 06:21:11 -0.04,-137.23 0.89,-133.15 466.05 80
10 12/21/2022 18:40:03 0.04,-137.21 0.14,-137.71 56.20 80
